This is the latest recevied weather packets stored in our database for station/object DL0BB-10. If no packets are shown the sender has not sent any weather packets the latest 10 day(s).
| Time | Temp. | Humidity | Pressure | Rain* | Wind** | Luminosity | Snow |
|---|---|---|---|---|---|---|---|
| 1788451192 | 27.22° C | 38% | 1020.7 hPa | - | - | - | - |
| 1788450292 | 26.67° C | 39% | 1020.9 hPa | - | - | - | - |
| 1788449392 | 26.67° C | 38% | 1021 hPa | - | - | - | - |
| 1788448491 | 27.22° C | 37% | 1021.2 hPa | - | - | - | - |
| 1788447591 | 26.67° C | 39% | 1021.5 hPa | - | - | - | - |
| 1788446694 | 26.67° C | 38% | 1021.4 hPa | - | - | - | - |
| 1788445793 | 26.67° C | 37% | 1021.6 hPa | - | - | - | - |
| 1788444893 | 27.22° C | 37% | 1021.6 hPa | - | - | - | - |
| 1788443993 | 26.11° C | 39% | 1021.6 hPa | - | - | - | - |
| 1788443093 | 26.67° C | 38% | 1021.7 hPa | - | - | - | - |
| 1788442195 | 26.67° C | 37% | 1021.7 hPa | - | - | - | - |
| 1788441293 | 26.67° C | 37% | 1021.9 hPa | - | - | - | - |
| 1788440393 | 26.11° C | 38% | 1022 hPa | - | - | - | - |
| 1788439493 | 26.11° C | 38% | 1022.1 hPa | - | - | - | - |
| 1788438593 | 26.67° C | 37% | 1022.3 hPa | - | - | - | - |
| 1788437693 | 26.11° C | 37% | 1022 hPa | - | - | - | - |
| 1788436792 | 25.56° C | 38% | 1021.9 hPa | - | - | - | - |
| 1788435892 | 25.56° C | 38% | 1021.9 hPa | - | - | - | - |
| 1788434992 | 26.11° C | 37% | 1022.2 hPa | - | - | - | - |
| 1788434092 | 25.56° C | 38% | 1022.2 hPa | - | - | - | - |
| 1788433192 | 25.56° C | 38% | 1022.4 hPa | - | - | - | - |
| 1788432292 | 25.56° C | 37% | 1022.8 hPa | - | - | - | - |
| 1788431392 | 26.11° C | 36% | 1022.9 hPa | - | - | - | - |
| 1788430492 | 25° C | 38% | 1023 hPa | - | - | - | - |
| 1788429592 | 25° C | 38% | 1023.1 hPa | - | - | - | - |
* Rain since midnight (hover to see other rain measurements)
** Current wind speed in m/s (hover to see current wind gust speed)